User: anonymous
Location: Caltech
(34.1382°N, 118.1253°W)
Time: 07:29:12
(UTC-07:00)
Language:

Iridium 65 - Orbit

View from above orbital plane
View from above orbital plane
View from above satellite
View from above satellite

Ground track
Ground track

The orbit data is extracted from the following two-line orbital elements,

1 25288U 98021D   14274.44832247  .00000311  00000-0  10383-3 0  9338
2 25288 086.3917 277.5558 0002157 101.5826 009.7668 14.34218204863156
Epoch (UTC): 01 October 2014 10:45:35
Eccentricity: 0.0002157
inclination: 86.3917°
perigee height: 776 km
apogee height: 779 km
right ascension of ascending node: 277.5558°
argument of perigee: 101.5826°
revolutions per day: 14.34218204
mean anomaly at epoch: 9.7668°
orbit number at epoch: 86315

The dashed part of the orbit path shows where the satellite is in the earth's shadow,  

DLR